KLM55TR EKCH-EDDH

Flight info

Callsign KLM55TR
Flight time 0h 30m
Altitude 24000
Route NEXEN T503 MICOS N850 BOGMU BOGMU3P
Aircraft B738/M-SDE2E3FGHIRWXY/LB1

Departure

Time 2026-05-04 19:35
Airport Copenhagen Kastrup Airport (EKCH)

Arrival

Time 2026-05-04 20:05
Airport Hamburg Helmut Schmidt Airport (EDDH)
Time Latitude Longitude Altitude Speed Heading
2026-05-04 19:02 55.62721 12.64096 -4 ft 0 kts 34°
2026-05-04 19:14 55.62718 12.64093 27 ft 2 kts 34°
2026-05-04 19:14 55.62705 12.64076 27 ft 2 kts 38°
2026-05-04 19:15 55.62692 12.64057 25 ft 2 kts 43°
2026-05-04 19:15 55.62681 12.64036 26 ft 2 kts 56°
2026-05-04 19:15 55.62674 12.64009 26 ft 2 kts 94°
2026-05-04 19:15 55.62678 12.63988 25 ft 1 kts 122°
2026-05-04 19:16 55.62679 12.63986 25 ft 0 kts 122°
2026-05-04 19:18 55.62670 12.64013 26 ft 11 kts 121°
2026-05-04 19:18 55.62615 12.64160 22 ft 15 kts 130°
2026-05-04 19:18 55.62521 12.64224 21 ft 15 kts 146°
2026-05-04 19:19 55.62459 12.64366 18 ft 15 kts 128°
2026-05-04 19:19 55.62379 12.64443 18 ft 11 kts 188°
2026-05-04 19:19 55.62364 12.64438 18 ft 0 kts 192°
2026-05-04 19:21 55.62348 12.64432 18 ft 12 kts 194°
2026-05-04 19:21 55.62231 12.64374 16 ft 20 kts 202°
2026-05-04 19:21 55.62107 12.64274 17 ft 19 kts 205°
2026-05-04 19:22 55.61989 12.64170 19 ft 19 kts 203°
2026-05-04 19:22 55.61875 12.64070 20 ft 18 kts 218°
2026-05-04 19:22 55.61775 12.63946 20 ft 17 kts 203°
2026-05-04 19:22 55.61678 12.63943 19 ft 0 kts 176°
2026-05-04 19:32 55.61626 12.63952 18 ft 15 kts 173°
2026-05-04 19:32 55.61542 12.63933 18 ft 0 kts 214°
2026-05-04 19:34 55.61489 12.63858 17 ft 31 kts 221°
2026-05-04 19:34 55.61126 12.63298 22 ft 106 kts 221°
2026-05-04 19:34 55.60400 12.62185 38 ft 166 kts 220°
2026-05-04 19:34 55.59428 12.60746 520 ft 191 kts 221°
2026-05-04 19:35 55.58383 12.59215 1385 ft 197 kts 224°
2026-05-04 19:35 55.57339 12.57618 2279 ft 194 kts 224°
2026-05-04 19:35 55.56426 12.56273 3625 ft 152 kts 220°
2026-05-04 19:35 55.55646 12.55292 4475 ft 130 kts 220°
2026-05-04 19:36 55.54900 12.54366 4761 ft 138 kts 220°
2026-05-04 19:36 55.54022 12.53285 4736 ft 172 kts 218°
2026-05-04 19:36 55.52980 12.52024 5116 ft 184 kts 218°
2026-05-04 19:36 55.51921 12.50812 5814 ft 184 kts 216°
2026-05-04 19:37 55.50768 12.49576 5983 ft 206 kts 215°
2026-05-04 19:37 55.49528 12.48114 6158 ft 222 kts 218°
2026-05-04 19:37 55.48260 12.46475 6279 ft 227 kts 220°
2026-05-04 19:37 55.46939 12.44705 6378 ft 251 kts 219°
2026-05-04 19:38 55.45506 12.42879 6894 ft 261 kts 218°
2026-05-04 19:38 55.44007 12.41017 7595 ft 264 kts 218°
2026-05-04 19:38 55.42496 12.39160 8350 ft 266 kts 218°
2026-05-04 19:38 55.40965 12.37285 9086 ft 269 kts 218°
2026-05-04 19:39 55.39418 12.35396 9821 ft 272 kts 218°
2026-05-04 19:39 55.37850 12.33487 10455 ft 277 kts 218°
2026-05-04 19:39 55.36200 12.31473 10641 ft 299 kts 218°
2026-05-04 19:39 55.34449 12.29342 11066 ft 311 kts 218°
2026-05-04 19:40 55.32618 12.27119 11307 ft 329 kts 218°
2026-05-04 19:40 55.30706 12.24805 11790 ft 337 kts 218°
2026-05-04 19:40 55.28763 12.22460 12491 ft 339 kts 218°
2026-05-04 19:40 55.26813 12.20107 13214 ft 342 kts 218°
2026-05-04 19:41 55.24845 12.17733 13875 ft 345 kts 218°
2026-05-04 19:41 55.22860 12.15341 14460 ft 348 kts 218°
2026-05-04 19:41 55.20856 12.12930 15042 ft 351 kts 218°
2026-05-04 19:41 55.18849 12.10462 15610 ft 354 kts 219°
2026-05-04 19:42 55.16879 12.07948 16159 ft 357 kts 219°
2026-05-04 19:42 55.14873 12.05361 16734 ft 360 kts 219°
2026-05-04 19:42 55.12849 12.02748 17301 ft 363 kts 219°
2026-05-04 19:42 55.10805 12.00119 17857 ft 367 kts 219°
2026-05-04 19:43 55.08740 11.97472 18396 ft 370 kts 219°
2026-05-04 19:43 55.06649 11.94801 18893 ft 372 kts 219°
2026-05-04 19:43 55.04555 11.92132 19408 ft 374 kts 219°
2026-05-04 19:43 55.02443 11.89446 19907 ft 377 kts 219°
2026-05-04 19:44 55.00318 11.86747 20387 ft 379 kts 219°
2026-05-04 19:44 54.98180 11.84036 20879 ft 382 kts 219°
2026-05-04 19:44 54.96025 11.81306 21349 ft 384 kts 219°
2026-05-04 19:44 54.93857 11.78564 21844 ft 385 kts 219°
2026-05-04 19:45 54.91727 11.75876 22431 ft 384 kts 220°
2026-05-04 19:45 54.89556 11.73137 22883 ft 387 kts 220°
2026-05-04 19:45 54.87373 11.70384 23286 ft 390 kts 220°
2026-05-04 19:45 54.85166 11.67606 23677 ft 392 kts 220°
2026-05-04 19:46 54.82944 11.64813 23916 ft 397 kts 220°
2026-05-04 19:46 54.80681 11.61973 23960 ft 405 kts 220°
2026-05-04 19:46 54.78372 11.59088 23973 ft 413 kts 219°
2026-05-04 19:46 54.76018 11.56157 23981 ft 420 kts 219°
2026-05-04 19:47 54.73627 11.53185 23978 ft 427 kts 219°
2026-05-04 19:47 54.71198 11.50172 23963 ft 432 kts 220°
2026-05-04 19:47 54.68781 11.47179 23969 ft 432 kts 220°
2026-05-04 19:47 54.66345 11.44166 23966 ft 430 kts 220°
2026-05-04 19:48 54.63914 11.41162 23977 ft 429 kts 220°
2026-05-04 19:48 54.61487 11.38164 23974 ft 428 kts 220°
2026-05-04 19:48 54.59066 11.35177 23979 ft 428 kts 220°
2026-05-04 19:48 54.56644 11.32195 23974 ft 428 kts 219°
2026-05-04 19:49 54.54217 11.29215 23982 ft 428 kts 219°
2026-05-04 19:49 54.51790 11.26247 23982 ft 428 kts 219°
2026-05-04 19:49 54.49356 11.23277 23980 ft 429 kts 219°
2026-05-04 19:49 54.46925 11.20313 23955 ft 426 kts 219°
2026-05-04 19:50 54.44572 11.17457 23801 ft 402 kts 220°
2026-05-04 19:50 54.42322 11.14728 23182 ft 391 kts 220°
2026-05-04 19:50 54.40113 11.12039 22204 ft 388 kts 219°
2026-05-04 19:50 54.37916 11.09362 21173 ft 388 kts 219°
2026-05-04 19:51 54.35721 11.06695 20248 ft 385 kts 219°
2026-05-04 19:51 54.33544 11.04062 19416 ft 381 kts 218°
2026-05-04 19:51 54.31416 11.01391 18593 ft 376 kts 223°
2026-05-04 19:51 54.29549 10.98299 17696 ft 372 kts 231°
2026-05-04 19:52 54.27977 10.94827 16834 ft 367 kts 234°
2026-05-04 19:52 54.26436 10.91354 16051 ft 368 kts 234°
2026-05-04 19:52 54.24881 10.87885 15531 ft 366 kts 234°
2026-05-04 19:52 54.23337 10.84463 15085 ft 362 kts 234°
2026-05-04 19:53 54.21803 10.81079 14598 ft 359 kts 234°
2026-05-04 19:53 54.20271 10.77715 14101 ft 358 kts 233°
2026-05-04 19:53 54.18549 10.74720 13564 ft 359 kts 221°
2026-05-04 19:53 54.16507 10.72330 12894 ft 354 kts 213°
2026-05-04 19:54 54.14413 10.70216 12268 ft 346 kts 213°
2026-05-04 19:54 54.12382 10.68158 11880 ft 333 kts 213°
2026-05-04 19:54 54.10425 10.66164 11480 ft 322 kts 214°
2026-05-04 19:54 54.08535 10.64231 11097 ft 312 kts 214°
2026-05-04 19:55 54.06704 10.62354 10729 ft 303 kts 214°
2026-05-04 19:55 54.04932 10.60537 10338 ft 289 kts 214°
2026-05-04 19:55 54.03264 10.58829 9962 ft 271 kts 214°
2026-05-04 19:55 54.01671 10.57194 9527 ft 265 kts 214°
2026-05-04 19:56 54.00080 10.55558 8980 ft 270 kts 214°
2026-05-04 19:56 53.98458 10.53893 8495 ft 274 kts 214°
2026-05-04 19:56 53.96833 10.52227 8037 ft 272 kts 214°
2026-05-04 19:56 53.95242 10.50600 7585 ft 269 kts 214°
2026-05-04 19:57 53.93646 10.48969 7139 ft 267 kts 214°
2026-05-04 19:57 53.92061 10.47351 6702 ft 265 kts 214°
2026-05-04 19:57 53.90490 10.45748 6247 ft 259 kts 214°
2026-05-04 19:57 53.88980 10.44211 5759 ft 247 kts 214°
2026-05-04 19:58 53.87550 10.42756 5341 ft 232 kts 214°
2026-05-04 19:58 53.86204 10.41387 4900 ft 221 kts 214°
2026-05-04 19:58 53.84898 10.40059 4459 ft 218 kts 213°
2026-05-04 19:58 53.83587 10.38727 4052 ft 220 kts 213°
2026-05-04 19:59 53.82281 10.37399 4008 ft 220 kts 214°
2026-05-04 19:59 53.81186 10.35636 3982 ft 219 kts 238°
2026-05-04 19:59 53.80287 10.33519 3971 ft 223 kts 231°
2026-05-04 19:59 53.79255 10.31541 3975 ft 224 kts 230°
2026-05-04 20:00 53.78243 10.29542 3976 ft 222 kts 231°
2026-05-04 20:00 53.77252 10.27540 3983 ft 222 kts 231°
2026-05-04 20:00 53.76259 10.25536 3866 ft 225 kts 231°
2026-05-04 20:00 53.75260 10.23523 3580 ft 227 kts 231°
2026-05-04 20:01 53.74248 10.21483 3268 ft 224 kts 231°
2026-05-04 20:01 53.73263 10.19497 2979 ft 216 kts 231°
2026-05-04 20:01 53.72326 10.17606 2705 ft 203 kts 231°
2026-05-04 20:01 53.71447 10.15832 2441 ft 191 kts 231°
2026-05-04 20:02 53.70623 10.14168 2206 ft 178 kts 232°
2026-05-04 20:02 53.69842 10.12590 1973 ft 173 kts 232°
2026-05-04 20:02 53.69074 10.11037 1747 ft 173 kts 232°
2026-05-04 20:02 53.68296 10.09465 1509 ft 176 kts 232°
2026-05-04 20:03 53.67517 10.07890 1281 ft 172 kts 232°
2026-05-04 20:03 53.66783 10.06407 1085 ft 160 kts 232°
2026-05-04 20:03 53.66079 10.04981 860 ft 157 kts 232°
2026-05-04 20:03 53.65377 10.03560 651 ft 159 kts 232°
2026-05-04 20:04 53.64670 10.02130 434 ft 159 kts 232°
2026-05-04 20:04 53.63966 10.00706 233 ft 158 kts 231°
2026-05-04 20:04 53.63275 9.99310 46 ft 148 kts 230°
2026-05-04 20:04 53.62758 9.98261 43 ft 85 kts 230°
2026-05-04 20:05 53.62529 9.97808 40 ft 15 kts 216°
2026-05-04 20:05 53.62442 9.97833 40 ft 12 kts 131°
2026-05-04 20:05 53.62432 9.97866 40 ft 0 kts 107°
2026-05-04 20:06 53.62431 9.97869 40 ft 2 kts 104°
2026-05-04 20:06 53.62431 9.97944 40 ft 8 kts 84°
2026-05-04 20:06 53.62449 9.98048 40 ft 14 kts 66°
2026-05-04 20:07 53.62510 9.98186 41 ft 15 kts 51°
2026-05-04 20:07 53.62574 9.98314 41 ft 14 kts 51°
2026-05-04 20:07 53.62646 9.98461 41 ft 16 kts 51°
2026-05-04 20:07 53.62718 9.98607 42 ft 17 kts 50°
2026-05-04 20:08 53.62819 9.98809 42 ft 24 kts 51°
2026-05-04 20:08 53.62923 9.99022 42 ft 23 kts 49°
2026-05-04 20:08 53.63023 9.99227 43 ft 22 kts 51°
2026-05-04 20:08 53.63113 9.99430 44 ft 22 kts 55°
2026-05-04 20:09 53.63203 9.99629 43 ft 21 kts 51°
2026-05-04 20:09 53.63221 9.99667 44 ft 0 kts 52°
2026-05-04 20:10 53.63225 9.99676 44 ft 9 kts 49°
2026-05-04 20:10 53.63323 9.99850 44 ft 23 kts 50°
2026-05-04 20:11 53.63419 10.00053 45 ft 21 kts 67°
2026-05-04 20:11 53.63336 10.00179 42 ft 20 kts 183°
2026-05-04 20:11 53.63281 10.00177 45 ft 0 kts 178°
2026-05-04 20:12 53.63272 10.00176 45 ft 11 kts 185°
2026-05-04 20:12 53.63179 10.00209 43 ft 15 kts 116°
2026-05-04 20:12 53.63199 10.00372 45 ft 14 kts 88°
2026-05-04 20:12 53.63199 10.00384 45 ft 0 kts 87°